Location: Muenchen
(48.1800°N, 11.5800°E)
Time: 18:40:11
(UTC+02:00)

Vanguard 2 Rocket - Visible Passes

Search period start: 25 August 2016 00:00
Search period end: 04 September 2016 00:00
Orbit: 556 x 3328 km, 32.9° (Epoch: 24 August)

Date Brightness Start Highest point End Pass type
(mag) Time Alt. Az. Time Alt. Az. Time Alt. Az.
25 Aug 10.1 00:52:03 10° W 01:05:21 28° SW 01:05:21 28° SW visible
25 Aug 9.6 21:36:42 10° WSW 21:49:51 45° S 22:02:47 21° SE visible
25 Aug 9.9 23:51:14 10° W 00:05:40 34° SSW 00:08:32 33° SSW visible
26 Aug 10.7 02:11:16 10° WSW 02:14:17 13° WSW 02:14:17 13° WSW visible
26 Aug 9.5 20:37:38 10° WSW 20:49:16 44° S 21:06:02 11° ESE visible
26 Aug 9.8 22:51:06 10° W 23:04:52 38° SSW 23:11:48 31° SSE visible
27 Aug 10.4 01:08:07 10° WSW 01:17:33 21° SW 01:17:33 21° SW visible
27 Aug 9.7 21:51:29 10° WSW 22:04:09 41° SSW 22:15:07 23° SE visible
28 Aug 10.1 00:06:43 10° W 00:19:39 27° SSW 00:20:52 27° SSW visible
28 Aug 9.6 20:52:20 10° WSW 21:03:38 42° S 21:18:29 14° SE visible
28 Aug 10.0 23:06:17 10° W 23:19:03 32° SSW 23:24:16 28° S visible
29 Aug 10.6 01:26:02 10° WSW 01:30:02 13° SW 01:30:02 13° SW visible
29 Aug 9.8 22:06:29 10° WSW 22:18:28 35° SSW 22:27:42 24° SSE visible
30 Aug 10.4 00:23:03 10° WSW 00:33:28 19° SW 00:33:28 19° SW visible
30 Aug 9.7 21:07:13 10° WSW 21:18:03 38° S 21:31:13 15° SE visible
30 Aug 10.2 23:21:57 10° WSW 23:33:12 24° SSW 23:36:59 23° SSW visible
31 Aug 9.5 20:08:19 10° WSW 20:17:52 38° S 20:32:46 10° SE visible
31 Aug 10.0 22:21:49 10° WSW 22:32:47 29° SSW 22:40:35 21° S visible
01 Sep 10.6 00:41:58 10° WSW 00:46:22 12° SW 00:46:22 12° SW visible
01 Sep 9.8 21:22:19 10° WSW 21:32:28 32° SSW 21:44:14 15° SSE visible
01 Sep 10.4 23:38:43 10° WSW 23:47:21 17° SW 23:50:01 16° SSW visible
02 Sep 9.6 20:23:17 10° WSW 20:32:22 33° S 20:46:14 10° SE visible
02 Sep 10.2 22:37:45 10° WSW 22:47:06 21° SSW 22:53:45 17° S visible
03 Sep 10.0 21:37:50 10° WSW 21:46:56 25° SSW 21:57:34 13° SSE visible
